Location: Raleigh
(35.7720°N, 78.6390°W)
Time: 09:28:25
(UTC-04:00)

Amateur Radio Satellites - All Passes

Search period start: 31 October 2014 08:58
Search period end: 01 November 2014 08:58
Location: Raleigh, 35.7720°N, 78.6390°W

Satellite Date Start Highest point End Downlink Frequencies (MHz)
Time Altitude Azimuth
ISS 31 Oct 09:05:16 09:06:05 11° 126° (SE) 09:06:53 145.800 FM
HO-68 31 Oct 09:37:16 09:43:56 40° 99° (E) 09:50:32 435.675 MHz FM
RS-15 31 Oct 09:45:05 09:50:29 15° 262° (W) 09:56:01 29.354 - 29.394 USB, Beacon 29.352 USB
UKube-1 31 Oct 09:55:50 09:58:18 15° 94° (E) 10:00:44 145.840 MHz, 145.915 MHz
Oscar 11 31 Oct 10:29:41 10:33:40 36° 98° (E) 10:37:39 145.825 FM, Beacon 2401.500 USB
SO-50 31 Oct 10:32:41 10:35:47 19° 109° (ESE) 10:38:57 436.795 FM
ISS 31 Oct 10:39:05 10:42:21 60° 320° (NW) 10:45:39 145.800 FM
KITSAT 1 31 Oct 10:40:54 10:48:30 47° 110° (ESE) 10:56:07 435.175 FM
FUNcube-1 31 Oct 10:46:27 10:49:41 22° 95° (E) 10:52:53 145.950 - 145.970 MHz USB
Sapphire 31 Oct 11:13:11 11:17:14 21° 51° (NE) 11:21:16 437.095 MHz 1200 baud AX-25 AFSK
HO-68 31 Oct 11:25:05 11:31:28 36° 295° (WNW) 11:37:50 435.675 MHz FM
UKube-1 31 Oct 11:30:32 11:34:37 40° 288° (WNW) 11:38:41 145.840 MHz, 145.915 MHz
PCSat 31 Oct 11:34:19 11:39:13 33° 56° (NE) 11:44:03 145.825 MHz
ZACube-1 31 Oct 11:39:01 11:43:13 82° 283° (WNW) 11:47:21 437.345 MHz
Oscar 11 31 Oct 12:06:48 12:09:32 17° 292° (WNW) 12:12:16 145.825 FM, Beacon 2401.500 USB
SO-50 31 Oct 12:11:48 12:16:00 39° 305° (NW) 12:20:19 436.795 FM
ISS 31 Oct 12:18:42 12:19:37 11° 338° (NNW) 12:20:33 145.800 FM
FUNcube-1 31 Oct 12:22:35 12:26:00 25° 290° (WNW) 12:29:22 145.950 - 145.970 MHz USB
KITSAT 1 31 Oct 12:36:40 12:43:59 37° 308° (NW) 12:51:22 435.175 FM
Oscar 19 31 Oct 12:43:17 12:45:50 14° 63° (ENE) 12:48:23 437.125 CW, 437.150 USB
JAS-1B 31 Oct 12:44:15 12:47:19 15° 62° (ENE) 12:50:22 435.800 - 435.900 CW/SSB
Sapphire 31 Oct 12:55:41 13:00:57 52° 248° (WSW) 13:06:10 437.095 MHz 1200 baud AX-25 AFSK
UOSAT-12 31 Oct 12:55:45 13:00:13 53° 116° (ESE) 13:04:48 437.025 FM, 437.400 FM
PCSat 31 Oct 13:17:50 13:22:29 30° 252° (WSW) 13:27:07 145.825 MHz
AO-27 31 Oct 13:19:42 13:21:58 13° 62° (ENE) 13:24:14 436.795 MHz FM
Oscar 16 31 Oct 13:27:43 13:32:29 40° 71° (ENE) 13:37:15 437.025 USB, Beacon 2401.1428
Uribyol 2 31 Oct 14:00:39 14:05:20 34° 70° (ENE) 14:10:01 436.500 FM
AO-Echo 31 Oct 14:03:08 14:07:49 43° 72° (ENE) 14:12:39 ?
ITAMSAT 1 31 Oct 14:08:28 14:13:15 38° 70° (ENE) 14:18:04 435.822 SSB
Oscar 19 31 Oct 14:19:30 14:24:36 64° 259° (WSW) 14:29:42 437.125 CW, 437.150 USB
JAS-1B 31 Oct 14:31:40 14:37:26 61° 258° (WSW) 14:43:04 435.800 - 435.900 CW/SSB
UOSAT-12 31 Oct 14:37:34 14:40:41 18° 313° (NW) 14:43:51 437.025 FM, 437.400 FM
AO-27 31 Oct 14:55:37 15:00:48 72° 258° (WSW) 15:06:03 436.795 MHz FM
Oscar 16 31 Oct 15:08:06 15:11:55 21° 265° (W) 15:15:45 437.025 USB, Beacon 2401.1428
Gurwin Techsat 1B 31 Oct 15:10:57 15:16:15 81° 76° (ENE) 15:21:35 435.225 FM
Saudisat 1A 31 Oct 15:13:03 15:17:25 58° 58° (ENE) 15:21:46 436.775 MHz
TMSAT-1 31 Oct 15:17:22 15:22:37 69° 75° (ENE) 15:27:54 436.925 FM
Uribyol 2 31 Oct 15:40:34 15:44:48 25° 264° (W) 15:49:03 436.500 FM
AO-Echo 31 Oct 15:43:22 15:46:46 18° 267° (W) 15:50:15 ?
ITAMSAT 1 31 Oct 15:48:49 15:52:48 22° 265° (W) 15:56:50 435.822 SSB
AO-7 31 Oct 15:55:23 16:03:10 48° 65° (ENE) 16:10:58 29.400 - 29.500 MHz
Uosat F 31 Oct 15:55:45 15:59:29 21° 66° (ENE) 16:03:13 435.120 FM
JAS-2 31 Oct 16:52:05 16:57:07 26° 63° (ENE) 17:02:37 435.800 - 435.900 CW/SSB, 435.910 FM
Saudisat 1A 31 Oct 16:54:54 16:56:26 12° 253° (WSW) 16:57:59 436.775 MHz
TMSAT-1 31 Oct 17:00:54 17:02:57 12° 269° (W) 17:05:02 436.925 FM
Hamsat 31 Oct 17:06:45 17:08:03 11° 66° (ENE) 17:09:20 145.90 MHz
ISS 31 Oct 17:10:07 17:13:19 42° 37° (NE) 17:16:30 145.800 FM
Uosat F 31 Oct 17:33:18 17:37:58 39° 261° (W) 17:42:41 435.120 FM
AO-7 31 Oct 17:48:43 17:56:01 35° 262° (W) 18:03:23 29.400 - 29.500 MHz
OPAL 31 Oct 18:05:27 18:09:59 35° 100° (E) 18:14:29 ?
JAS-2 31 Oct 18:35:43 18:41:38 50° 262° (W) 18:48:22 435.800 - 435.900 CW/SSB, 435.910 FM
KITSAT 1 31 Oct 18:38:22 18:43:03 16° 38° (NE) 18:47:42 435.175 FM
Hamsat 31 Oct 18:39:25 18:43:30 52° 260° (W) 18:47:35 145.90 MHz
ISS 31 Oct 18:47:39 18:49:44 16° 232° (SW) 18:51:49 145.800 FM
SO-50 31 Oct 19:07:32 19:09:08 11° 43° (NE) 19:10:46 436.795 FM
SO-67 31 Oct 19:22:43 19:26:02 51° 76° (ENE) 19:29:23 435.3500 MHz FM
RS-15 31 Oct 19:40:51 19:48:02 20° 101° (E) 19:55:07 29.354 - 29.394 USB, Beacon 29.352 USB
OPAL 31 Oct 19:44:49 19:48:38 23° 295° (WNW) 19:52:26 ?
AO-40 31 Oct 20:01:41 22:21:32 21° 110° (ESE) 23:32:07 Beacon 2401.320
STRAND 1 31 Oct 20:01:44 20:06:53 72° 102° (ESE) 20:11:59 ?
HO-68 31 Oct 20:04:03 20:09:21 23° 61° (ENE) 20:14:39 435.675 MHz FM
KITSAT 1 31 Oct 20:31:58 20:40:02 69° 60° (ENE) 20:48:03 435.175 FM
SO-50 31 Oct 20:45:32 20:50:25 83° 60° (ENE) 20:55:19 436.795 FM
Oscar 10/S400 31 Oct 20:56:04 21:35:31 58° 203° (SSW) 07:36:17 145.825 - 145.975 CW/USB, Beacon 145.810 USB
Oscar 11 31 Oct 21:22:34 21:25:48 21° 69° (ENE) 21:29:01 145.825 FM, Beacon 2401.500 USB
UOSAT-12 31 Oct 21:28:36 21:32:20 23° 50° (NE) 21:36:01 437.025 FM, 437.400 FM
FUNcube-1 31 Oct 21:40:56 21:43:24 15° 67° (ENE) 21:45:51 145.950 - 145.970 MHz USB
STRAND 1 31 Oct 21:43:21 21:45:24 12° 298° (WNW) 21:47:27 ?
MaSat-1 31 Oct 21:47:27 21:50:55 29° 109° (ESE) 21:54:08 437.345 MHz
RS-15 31 Oct 21:47:50 21:58:54 86° 299° (WNW) 22:09:53 29.354 - 29.394 USB, Beacon 29.352 USB
HO-68 31 Oct 21:49:21 21:56:25 64° 257° (WSW) 22:03:34 435.675 MHz FM
UKube-1 31 Oct 22:22:35 22:26:55 69° 258° (WSW) 22:31:17 145.840 MHz, 145.915 MHz
KITSAT 1 31 Oct 22:28:47 22:34:40 23° 257° (WSW) 22:40:32 435.175 FM
ZACube-1 31 Oct 22:32:07 22:36:34 55° 75° (ENE) 22:40:56 437.345 MHz
Oscar 11 31 Oct 22:58:02 23:01:46 28° 263° (W) 23:05:31 145.825 FM, Beacon 2401.500 USB
UOSAT-12 31 Oct 23:08:15 23:12:35 37° 246° (WSW) 23:16:49 437.025 FM, 437.400 FM
FUNcube-1 31 Oct 23:15:00 23:19:22 47° 261° (W) 23:23:41 145.950 - 145.970 MHz USB
MaSat-1 31 Oct 23:23:42 23:26:16 17° 300° (WNW) 23:28:42 437.345 MHz
RS-15 01 Nov 00:04:28 00:12:59 25° 324° (NW) 00:21:34 29.354 - 29.394 USB, Beacon 29.352 USB
ZACube-1 01 Nov 00:11:42 00:13:12 12° 268° (W) 00:14:42 437.345 MHz
Oscar 16 01 Nov 01:43:18 01:46:39 17° 93° (E) 01:49:59 437.025 USB, Beacon 2401.1428
Sapphire 01 Nov 01:51:52 01:56:32 31° 108° (ESE) 02:01:14 437.095 MHz 1200 baud AX-25 AFSK
PCSat 01 Nov 02:12:47 02:18:01 54° 112° (ESE) 02:23:17 145.825 MHz
AO-Echo 01 Nov 02:14:09 02:17:51 19° 93° (E) 02:21:29 ?
JAS-1B 01 Nov 02:16:11 02:23:18 46° 100° (E) 02:31:38 435.800 - 435.900 CW/SSB
Uribyol 2 01 Nov 02:17:35 02:20:30 15° 93° (E) 02:23:24 436.500 FM
ITAMSAT 1 01 Nov 02:25:19 02:28:40 17° 93° (E) 02:32:00 435.822 SSB
RS-15 01 Nov 02:27:21 02:31:20 12° 0° (N) 02:35:21 29.354 - 29.394 USB, Beacon 29.352 USB
Oscar 19 01 Nov 02:34:00 02:39:03 57° 101° (E) 02:44:04 437.125 CW, 437.150 USB
PANSAT 01 Nov 03:08:51 03:10:05 11° 159° (SSE) 03:11:20 not established
AO-27 01 Nov 03:11:42 03:16:48 52° 100° (E) 03:21:51 436.795 MHz FM
Oscar 16 01 Nov 03:21:19 03:26:12 47° 288° (WNW) 03:31:05 437.025 USB, Beacon 2401.1428
Gurwin Techsat 1B 01 Nov 03:30:21 03:35:22 41° 99° (E) 03:40:20 435.225 FM
Sapphire 01 Nov 03:35:03 03:39:51 32° 304° (NW) 03:44:42 437.095 MHz 1200 baud AX-25 AFSK
TMSAT-1 01 Nov 03:36:30 03:41:18 34° 97° (E) 03:46:04 436.925 FM
AO-Echo 01 Nov 03:51:43 03:56:47 46° 288° (WNW) 04:01:46 ?
Uribyol 2 01 Nov 03:55:12 04:00:16 55° 287° (WNW) 04:05:18 436.500 FM
PCSat 01 Nov 03:57:47 04:01:45 20° 309° (NW) 04:05:43 145.825 MHz
AO-7 01 Nov 04:02:03 04:06:56 17° 92° (E) 04:11:47 29.400 - 29.500 MHz
ITAMSAT 1 01 Nov 04:03:22 04:08:23 49° 288° (WNW) 04:13:21 435.822 SSB
JAS-1B 01 Nov 04:07:14 04:13:40 35° 292° (WNW) 04:21:09 435.800 - 435.900 CW/SSB
Oscar 19 01 Nov 04:14:59 04:17:52 15° 296° (WNW) 04:20:45 437.125 CW, 437.150 USB
RS-15 01 Nov 04:40:59 04:49:44 25° 37° (NE) 04:58:42 29.354 - 29.394 USB, Beacon 29.352 USB
PANSAT 01 Nov 04:46:32 04:49:39 23° 171° (S) 04:52:45 not established
AO-27 01 Nov 04:52:31 04:55:51 17° 296° (WNW) 04:59:09 436.795 MHz FM
Gurwin Techsat 1B 01 Nov 05:11:01 05:15:01 22° 294° (WNW) 05:19:01 435.225 FM
TMSAT-1 01 Nov 05:16:42 05:21:01 26° 292° (WNW) 05:25:20 436.925 FM
Saudisat 1A 01 Nov 05:17:04 05:20:51 29° 113° (ESE) 05:24:40 436.775 MHz
OPAL 01 Nov 05:17:26 05:22:20 48° 70° (ENE) 05:27:11 ?
Uosat F 01 Nov 05:43:28 05:48:32 81° 103° (ESE) 05:53:33 435.120 FM
JAS-2 01 Nov 05:48:04 05:55:00 33° 94° (E) 06:01:35 435.800 - 435.900 CW/SSB, 435.910 FM
AO-7 01 Nov 05:52:09 06:00:31 86° 288° (WNW) 06:08:52 29.400 - 29.500 MHz
PANSAT 01 Nov 06:26:05 06:29:21 26° 184° (S) 06:32:35 not established
Hamsat 01 Nov 06:27:54 06:31:42 32° 97° (E) 06:35:31 145.90 MHz
RS-15 01 Nov 06:52:37 07:03:55 84° 61° (ENE) 07:15:44 29.354 - 29.394 USB, Beacon 29.352 USB
Saudisat 1A 01 Nov 06:56:45 07:00:22 25° 308° (NW) 07:04:01 436.775 MHz
OPAL 01 Nov 06:58:06 07:01:24 17° 264° (W) 07:04:41 ?
STRAND 1 01 Nov 07:14:41 07:19:48 77° 75° (ENE) 07:24:58 ?
Uosat F 01 Nov 07:25:30 07:26:35 11° 299° (WNW) 07:27:39 435.120 FM
JAS-2 01 Nov 07:32:36 07:40:03 48° 291° (WNW) 07:47:11 435.800 - 435.900 CW/SSB, 435.910 FM
MaSat-1 01 Nov 07:34:54 07:36:26 15° 60° (ENE) 07:37:55 437.345 MHz
AO-7 01 Nov 07:47:07 07:52:07 18° 306° (NW) 07:57:07 29.400 - 29.500 MHz
Hamsat 01 Nov 08:04:30 08:07:24 18° 291° (WNW) 08:10:18 145.90 MHz
PANSAT 01 Nov 08:06:37 08:08:58 16° 197° (SSW) 08:11:19 not established
SO-67 01 Nov 08:21:16 08:24:44 84° 282° (WNW) 08:28:09 435.3500 MHz FM
